カタログに戻る

STARLINK-3935

運用中通信VLEO
NORAD 52549·PAYLOAD·🇺🇸 United States

打ち上げ May 13, 2022 から Vandenberg Space Force Base

Loading…

次のパス (今後24時間)

TLE

最新Source: CelesTrak SupGP

元期: Sep 15, 2026, 02:39 UTC

1 52549C 22051S   26258.11090278  .00048984  00000+0  14019-2 0  2583
2 52549  53.1580 347.0457 0001144  91.9504 138.7021 15.35365663    13

AllMySatでSTARLINK-3935をリアルタイム追跡

Download on the App Store